Regional Weather Roundup
Issued by NWS Upton, NY

Current Version | Previous Version | Text Only | Print | Product List | Glossary On
Versions: 1 2 3 4 5 6 7 8 9 10 11 12 13 14 15 16 17 18 19 20 21 22 23 24 25 26 27 28 29 30 31 32 33 34 35 36 37 38 39 40 41 42 43 44 45 46 47 48 49 50
000
ASUS41 KOKX 270705
RWROKX

REGIONAL WEATHER ROUNDUP
NATIONAL WEATHER SERVICE NEW YORK NY
300 AM EDT WED AUG 27 2014

NOTE: "FAIR" INDICATES FEW OR NO CLOUDS BELOW 12,000 FEET WITH NO
SIGNIFICANT WEATHER AND/OR OBSTRUCTIONS TO VISIBILITY.

NYZ071-072-176-178-NJZ106-104-270800-
NEW YORK CITY METRO AREA


CITY           SKY/WX    TMP DP  RH WIND       PRES   REMARKS
CENTRAL PARK   CLEAR     70  59  68 VRB6      30.07F
LAGUARDIA APRT PTCLDY    73  59  61 SW7       30.04F
KENNEDY INTL   CLEAR     71  58  63 W7        30.05F
NEWARK/LIBERTY CLEAR     69  61  75 SW7       30.05F
BRNX BOT. GARD   N/A     72  59  64 NW3       30.07R
TETERBORO      CLEAR     70  60  70 CALM      30.04F
$$

NYZ177-179-078>081-270800-
LONG ISLAND NEW YORK

CITY           SKY/WX    TMP DP  RH WIND       PRES   REMARKS
FARMINGDALE    CLEAR     68  62  81 CALM      30.05F
ISLIP          CLEAR     67  62  84 CALM      30.03F
SHIRLEY        CLEAR     63  60  90 CALM      30.06S
WESTHAMPTON    CLEAR     59  56  89 NW5       30.07S
MONTAUK POINT    N/A     68  65  90 CALM      30.06F
$$

NYZ052-065-067-270800-
HUDSON VALLEY

CITY           SKY/WX    TMP DP  RH WIND       PRES   REMARKS
WHITE PLAINS   CLEAR     64  60  87 W3        30.05F
NEWBURGH       CLEAR     66  64  94 CALM      30.06F
MONTGOMERY     CLEAR     63  61  93 SW3       30.04F
POUGHKEEPSIE   CLEAR     65  62  90 CALM      30.03F
ALBANY         PTCLDY    69  63  81 S7        30.00F
$$

NJZ001-105-106-008-010-013-015-019>022-104-270800-
NEW JERSEY

CITY           SKY/WX    TMP DP  RH WIND       PRES   REMARKS
NEWARK/LIBERTY CLEAR     69  61  75 SW7       30.05F
TETERBORO      CLEAR     70  60  70 CALM      30.04F
CALDWELL       CLEAR     68  60  75 CALM      30.06F
MORRISTOWN     CLEAR     63  59  88 CALM      30.05F
SOMERVILLE     CLEAR     63  60  90 CALM      30.04F
LINDEN         FAIR      73  64  73 W6        30.07F
SUSSEX         CLEAR     63  60  90 CALM      30.06F
ANDOVER          N/A     63  61  93 CALM      30.07F
TRENTON        CLEAR     66  60  81 CALM      30.05F
MILLVILLE      CLEAR     58  57  97 CALM      30.05F
ATLANTIC CITY  PTCLDY    58  57  97 CALM      30.05F
WRIGHTSTOWN    CLEAR     63  63  99 W5        30.03F
TOMS RIVER     CLEAR     59  54  82 CALM      30.05F
BELMAR         CLEAR     64  59  82 W5        30.05F
$$

PAZ047>061-062-071-270800-
EASTERN PENNSYLVANIA

CITY           SKY/WX    TMP DP  RH WIND       PRES   REMARKS
PHILADELPHIA   CLEAR     70  63  78 SW5       30.06F
ALLENTOWN      CLEAR     64  61  90 CALM      30.06F
SCRANTON       CLEAR     63  58  83 SE3       30.07F
$$

CTZ002-004>006-009-010-012-RIZ004-006-007-MAZ004-011-015-270800-
SOUTHERN NEW ENGLAND
 IN CT

CITY           SKY/WX    TMP DP  RH WIND       PRES   REMARKS
BRADLEY INTL   PTCLDY    67  63  87 S7        30.02F
HARTFORD       CLEAR     66  63  90 S5        30.03F
DANBURY        CLEAR     65  60  84 NW3       30.06F
WTRBRY/OXFORD  CLEAR     64  59  82 CALM      30.08F
BRIDGEPORT     CLEAR     70  65  84 W5        30.04F
MERIDEN        PTCLDY    62  60  93 CALM      30.04F FOG
NEW HAVEN      CLEAR     73  65  75 CALM      30.04F
CHESTER        FAIR      66  64  94 SW6       30.06F
GROTON         CLEAR     64  63  96 SW5       30.04F
WILLIMANTIC    CLEAR     61  58  90 CALM      30.05F

 IN RI

CITY           SKY/WX    TMP DP  RH WIND       PRES   REMARKS
PROVIDENCE     CLEAR     63  57  81 SW7       30.03F
BLOCK ISLAND   CLEAR     66  63  88 W8        30.05F
WESTERLY       CLEAR     61  59  93 CALM      30.05F

 IN MA

CITY           SKY/WX    TMP DP  RH WIND       PRES   REMARKS
BOSTON         NOT AVBL
WORCESTER      CLEAR     65  60  84 W15       30.05S
WESTFIELD      CLEAR     65  62  90 S5        30.02F
PROVINCETOWN   CLEAR     64  61  88 MISG      30.03F
NANTUCKET      FOG       62  61  96 SW5       30.04F VSB 1/4
$$

ANZ330-335-338-340-345-350-353-355-270800-
COASTAL MARINE OBSERVATIONS


STATION/POSITION TIME  SKY/WX   TEMP    WIND        PRES    VSBY  WAVE
                                AIR SEA DIR/SP/G                  HT/PER
                 (UTC)          (F)     (DEG/KT/KT) (MB)    (MI)  (FT/S)
NY HARB ENTRANCE NOT AVBL
4S FIRE IS       NOT AVBL
23SW MTP         0700                                 N/A           3/ 9
HUDSON CANYON    0700            71 72   CALM  /  2 1017.5          4/ 9
EXECUTION ROCKS  0700            73 74  240/  8/  8   N/A
WESTERN LI SOUND 0700            73     230/  8/  8   N/A           1
CENTRAL LI SOUND 0600            72 74  250/ 10/ 12   N/A           1/ 3
EASTERN LI SOUND 0600            69 68  230/  6/  8   N/A
ROBBINS REEF     0700            71     260/  6/  7   N/A
$$


>>>>>>>>>>>>>>>>>>>>>>>>>>>> KEY <<<<<<<<<<<<<<<<<<<<<<<<<<<
>                                                          <
>     SKY/WX - SKY CONDITION/PRESENT WEATHER               <
>     TMP    - TEMPERATURE IN FAHRENHEIT                   <
>     DP     - DEWPOINT IN FAHRENHEIT                      <
>     RH     - RELATIVE HUMIDITY IN PERCENT                <
>     WIND   - DIRECTION AND SPEED IN MPH                  <
>     PRES   - MEAN SEA LEVEL PRESSURE IN INCHES OF HG     <
>     WCI    - WIND CHILL INDEX                            <
>     VSB    - VISIBILITY IN MILES                         <
>     HX     - HEAT INDEX                                  <
>     TC     - TEMPERATURE IN CELSIUS                      <
>     VRB    - VARIABLE WIND DIRECTION                     <
>                                                          <
>>>>>>>>>>>>>>>>>>>>>>>>>>>> KEY <<<<<<<<<<<<<<<<<<<<<<<<<<<





USA.gov is the U.S. government's official web portal to all federal, state and local government web resources and services.